Location: Rounton
(54.4000°N, 1.3500°W)
Time: 08:12:50
(UTC+00:00)

Tiros 1 despin weight - Pass Details

Date: 01 December 2021
Orbit: 592 x 641 km, 48.2° (Epoch: 19 January)

Event Time Altitude Azimuth Distance (km) Brightness Sun altitude
Rises 17:54:42 0° 265° (W) 2,825 ? -17.7°
Reaches altitude 10° 17:57:09 10° 256° (WSW) 1,924 ? -18.0°
Maximum altitude 18:01:05 33° 192° (SSW) 1,011 ? -18.6°
Enters shadow 18:03:31 19° 141° (SE) 1,431 ? -18.9°
Drops below altitude 10° 18:05:03 10° 129° (SE) 1,932 - -19.2°
Sets 18:07:30 0° 119° (ESE) 2,840 - -19.5°
